Regional Weather Roundup
Issued by NWS

Home | Current Version | Previous Version | Graphics & Text | Print | Product List | Glossary On
Versions: 1 2 3 4 5 6 7 8 9 10 11 12 13 14 15 16 17 18 19 20 21 22 23 24 25 26 27 28 29 30 31 32 33 34 35 36 37 38 39 40 41 42 43 44 45 46 47 48 49 50
000
ASUS43 KMKX 311800
RWRWI

WISCONSIN REGIONAL WEATHER ROUNDUP
NATIONAL WEATHER SERVICE MILWAUKEE/SULLIVAN WI
100 PM CDT FRI JUL 31 2015

NOTE: "FAIR" INDICATES FEW OR NO CLOUDS BELOW 12,000 FEET WITH NO
SIGNIFICANT WEATHER AND/OR OBSTRUCTIONS TO VISIBILITY.

WIZ001-002-006>008-014>016-023>028-311900-
NORTHWEST WISCONSIN

CITY           SKY/WX    TMP DP  RH WIND       PRES   REMARKS
SUPERIOR ARPT  PTSUNNY   75  55  50 W15G24    29.97F
ASHLAND        PTSUNNY   76  55  48 W12G23    29.95F
6HR MIN TEMP:  64; 6HR MAX TEMP:  77;

HAYWARD        PTSUNNY   75  50  41 W9G21     30.00S
6HR MIN TEMP:  64; 6HR MAX TEMP:  76;

SIREN          PTSUNNY   74  51  43 NW10G25   30.03S
CUMBERLAND     PTSUNNY   72  52  49 W16G22    30.03S
RICE LAKE      MOSUNNY   74  53  48 NW14G24   30.04S
CHETEK         MOSUNNY   76  55  48 W9G21     30.02S
LADYSMITH      MOSUNNY   76  52  42 W18G28    30.01F
EAU CLAIRE     NOT AVBL
MENOMONIE      MOSUNNY   79  50  36 W17G26    30.03F
NEW RICHMOND   MOSUNNY   75  52  43 NW16G24   30.05F
OSCEOLA        MOSUNNY   76  52  43 NW20G26   30.07F
$$

WIZ003>005-009-010-017-018-311900-
NORTH CENTRAL WISCONSIN

CITY           SKY/WX    TMP DP  RH WIND       PRES   REMARKS
MANITOWISH WTR PTSUNNY   72  52  50 NW15G24   29.95S
ARBOR VITAE    PTSUNNY   73  53  49 NW12G26   29.95F
WOODRUFF       PTSUNNY   73  53  49 NW12G26   29.95F
RHINELANDER    PTSUNNY   75  52  44 NW13G20   29.95F
6HR MIN TEMP:  61; 6HR MAX TEMP:  76;

EAGLE RIVER    PTSUNNY   70  49  46 NW16      29.94S
LAND O LAKES   MOSUNNY   72  50  44 NW14G23   29.94S
PHILLIPS       PTSUNNY   73  53  49 NW13G23   29.97S
6HR MIN TEMP:  61; 6HR MAX TEMP:  74;

TOMAHAWK       PTSUNNY   74  53  47 W14G23    29.97S
MEDFORD        PTSUNNY   74  54  48 W22       29.98F
MERRILL        NOT AVBL
$$

WIZ029-030-035-036-043>047-311900-
CENTRAL WISCONSIN

CITY           SKY/WX    TMP DP  RH WIND       PRES   REMARKS
WAUSAU         MOSUNNY   76  49  38 NW12G22   29.95F
6HR MIN TEMP:  64; 6HR MAX TEMP:  78;

MOSINEE        PTSUNNY   75  52  43 NW15G24   29.98F
MARSHFIELD     MOSUNNY   78  51  38 NW16G31   29.99F
6HR MIN TEMP:  64; 6HR MAX TEMP:  79;

STEVENS POINT  MOSUNNY   76  51  41 W13G21    29.98S
WAUPACA        MOSUNNY   80  48  32 W15G21    29.95F
WAUTOMA        NOT AVBL
WISC RAPIDS    PTSUNNY   80  47  31 NW16G30   29.99F
6HR MIN TEMP:  65; 6HR MAX TEMP:  81;

CAMP DOUGLAS   NOT AVBL
$$

WIZ011>013-019>022-031-037>040-048>050-311900-
NORTHEAST WISCONSIN

CITY           SKY/WX    TMP DP  RH WIND       PRES   REMARKS
ANTIGO         PTSUNNY   75  52  43 W15G26    29.95F
SHAWANO        PTSUNNY   80  50  35 NW16G26   29.92S HX  80
OCONTO         MOSUNNY   79  54  42 W13G18    29.88S
STURGEON BAY   SUNNY     79  54  41 W15G21    29.90F
6HR MIN TEMP:  66; 6HR MAX TEMP:  79;

GREEN BAY      MOSUNNY   80  55  42 NW13G25   29.91S HX  80
6HR MIN TEMP:  67; 6HR MAX TEMP:  81;

MANITOWOC      NOT AVBL
APPLETON       PTSUNNY   75  46  35 NW17G29   29.94F
CLINTONVILLE   MOSUNNY   79  46  31 W13G22    29.93S
OSHKOSH        MOSUNNY   79  52  38 NW20G26   29.94S
6HR MIN TEMP:  68; 6HR MAX TEMP:  80;

$$

WIZ032>034-041-042-053>061-311900-
SOUTHWEST WISCONSIN

CITY           SKY/WX    TMP DP  RH WIND       PRES   REMARKS
LA CROSSE      SUNNY     82  50  32 NW22G30   30.02F HX  81
6HR MIN TEMP:  69; 6HR MAX TEMP:  82;

SPARTA         MOSUNNY   80  46  29 W20G28    30.02F
VIROQUA        SUNNY     77  52  41 NW17      30.05F
BOSCOBEL       SUNNY     83  51  33 W14G24    30.03F HX  81
6HR MIN TEMP:  65; 6HR MAX TEMP:  84;

PRAIRIE DU CHI SUNNY     83  47  28 NW15      30.05S HX  81
PLATTEVILLE    SUNNY     81  52  36 NW16G25   30.05F HX  80
$$

WIZ056-057-062-063-064-067-068-311900-
SOUTH CENTRAL WISCONSIN

CITY           SKY/WX    TMP DP  RH WIND       PRES   REMARKS
REEDSBURG      MOSUNNY   80  51  36 W16G28    30.01F
BARABOO/DELLS  MOSUNNY   80  44  28 W16G28    30.00F
LONE ROCK      NOT AVBL
MINERAL POINT  SUNNY     79  45  29 NW12G25   30.05F
MADISON        MOSUNNY   80  50  34 NW15G25   29.99F HX  80
6HR MIN TEMP:  68; 6HR MAX TEMP:  80;

MIDDLETON      MOSUNNY   82  43  25 W17G33    30.01F HX  80
WATERTOWN      SUNNY     79  53  39 NW17G23   29.98S
MONROE         SUNNY     81  50  34 NW20G28   30.03F HX  80
JANESVILLE     MOSUNNY   84  48  28 NW22G28   29.99F HX  82
$$

WIZ051-052-058>065-066-070>072-311900-
SOUTHEAST WISCONSIN

CITY           SKY/WX    TMP DP  RH WIND       PRES   REMARKS
MILWAUKEE      MOSUNNY   84  49  29 NW20G29   29.94F HX  82
6HR MIN TEMP:  70; 6HR MAX TEMP:  85;

WAUKESHA       MOSUNNY   81  46  30 W21G29    29.97F HX  80
MILWAUKEE/TIMM MOSUNNY   82  45  26 MISG      29.96S HX  80
RACINE         LGT RAIN  84  49  29 NW16G25   29.96F HX  82
6HR MIN TEMP:  69; 6HR MAX TEMP:  84; 6HR PCP: TRACE;

BURLINGTON     MOSUNNY   81  47  30 W22G29    29.97F HX  80
KENOSHA        SUNNY     83  55  38 W16G30    29.96F HX  82
6HR MIN TEMP:  68; 6HR MAX TEMP:  84;

FOND DU LAC    MOSUNNY   82  50  32 W23G32    29.95F HX  81
6HR MIN TEMP:  66; 6HR MAX TEMP:  82;

SHEBOYGAN      MOSUNNY   79  52  38 NW16G29   29.93S
6HR MIN TEMP:  67; 6HR MAX TEMP:  80;

WEST BEND      SUNNY     79  45  29 W23G29    29.95F
JUNEAU         MOSUNNY   77  52  41 W10G18    29.98F
$$

LSZ147-162-311900-
LAKE SUPERIOR

STATION/POSITION TIME  TEMP    WIND        PRES    WAVE
                       AIR SEA DIR/SP/G            HT/PER
                 (UTC) (F)     (DEG/KT/KT) (MB)    (FT/S)
W MID LAKE BUOY  1650   58 54  250/ 14/ 16 1012.1R   2/ 3
DEVILS ISLAND    1700   61     250/ 15/ 18 1013.7R
PORT WING        1700   70     260/ 12/ 17 1014.9S
SAXON HARBOR     1740   68                 1013.9R
$$

LMZ867-665-643>646-311900-
LAKE MICHIGAN

STATION/POSITION TIME  TEMP    WIND        PRES    WAVE
                       AIR SEA DIR/SP/G            HT/PER
                 (UTC) (F)     (DEG/KT/KT) (MB)    (FT/S)
CHAMBERS ISLAND  1700   78     260/  3/  9 1011.2F
S GREEN BAY BUOY 1700   72 71  280/ 12/ 14 1013.5F
N MID LAKE BUOY  1650   69 68  250/ 10/ 12 1010.5S   2/ 4
NORTHPORT PIER   1700   76     310/ 10/ 13 1010.8F
SISTER BAY       1714   77     310/ 12/ 14   N/A
ALGOMA LAKESHORE 1727          260/ 11/ 20   N/A
KEWAUNEE LAKESHO 1700   77     300/ 10/ 19 1011.8S
SHEBOYGAN LAKESH 1700   77     300/ 16/ 21 1013.3R
PORT WASHINGTON  1740   82     290/ 13/ 22 1014.2F
ATWATER BUOY     1700   75 64  290/ 19/ 25 1015.3F
MILWAUKEE LAKESH 1700   80     290/ 18/ 31   N/A
KENOSHA   LAKESH 1700   82     300/ 12/ 25 1013.9F
$$

TC  - TEMPERATURE IN CELSIUS
VSB - VISIBILITY IN STATUTE MILES
WCI - WIND CHILL INDEX
HX  - HEAT INDEX



USA.gov is the U.S. government's official web portal to all federal, state and local government web resources and services.